If you wish to contribute or participate in the discussions about articles you are invited to join SKYbrary as a registered user

 Actions

Istres Le Tubé/Istres Air Base (BA 125) Airport

From SKYbrary Wiki

LFMI
Airport
ICAO: LFMI
Summary
Name Istres Le Tubé/Istres Air Base (BA 125) Airport
Region Europe
Territory France FR.gif
Location , Provence-Alpes-Cote d'Azur
Serving Istres
Elevation 24.994 m
82 ft
82 ft24.994 m
Type medium airport
Coordinates 43° 31' 21.85" N, 4° 55' 25.84" E
Runways
Designator Length Width Surface ROPS
15/33 3750 m12,303.15 ft
60 m196.85 ft
ASP yes/yes


METAR
Observation LFMI 251630Z AUTO 31008KT CAVOK 15/07 Q1011 NOSIG
Station Istres
Date/Time 25 February 2020 16:30:00
Wind direction 310°
Wind speed 08 kts
Lowest cloud amount clouds and visibility OK
Temperature 15°C
Dew point 7°C
Humidity 58%
QNH 1011 hPa
Weather condition n/a